Location: Alderson
(50.2799°N, 111.3440°W)
Time: 15:46:42
(UTC+00:00)

X-37B - Visible Passes

Search period start: 02 December 2021 00:00
Search period end: 12 December 2021 00:00
Orbit: 330 x 341 km, 45.0° (Epoch: 20 November)

Date Brightness Start Highest point End Pass type
(mag) Time Alt. Az. Time Alt. Az. Time Alt. Az.
09 Dec 2.7 01:12:01 10° SSW 01:13:42 15° SSE 01:13:51 14° SSE visible
10 Dec 2.4 01:31:33 10° SW 01:33:25 21° S 01:33:25 21° S visible
11 Dec 2.8 00:17:27 10° SSW 00:19:09 14° SSE 00:20:49 10° ESE visible
11 Dec 2.7 01:51:35 10° SW 01:52:57 20° SW 01:52:57 20° SW visible
